TimeCST,TemperatureF,Dew PointF,Humidity,Sea Level PressureIn,VisibilityMPH,Wind Direction,Wind SpeedMPH,Gust SpeedMPH,PrecipitationIn,Events,Conditions,WindDirDegrees,DateUTC
12:56 AM,-8.0,-13.0,79,30.52,10.0,West,8.1,-,N/A,,Clear,260,2013-12-24 06:56:00
1:56 AM,-9.0,-13.0,83,30.53,10.0,West,5.8,-,N/A,,Clear,260,2013-12-24 07:56:00
2:56 AM,-9.9,-15.0,78,30.55,10.0,West,6.9,-,N/A,,Clear,270,2013-12-24 08:56:00
3:56 AM,-11.0,-16.1,78,30.54,10.0,West,4.6,-,N/A,,Clear,260,2013-12-24 09:56:00
4:56 AM,-13.0,-17.0,82,30.54,10.0,West,4.6,-,N/A,,Clear,260,2013-12-24 10:56:00
5:56 AM,-16.1,-20.0,82,30.56,10.0,Calm,Calm,-,N/A,,Clear,0,2013-12-24 11:56:00
6:56 AM,-20.0,-23.1,86,30.57,9.0,WSW,3.5,-,N/A,,Clear,250,2013-12-24 12:56:00
7:56 AM,-18.9,-23.1,81,30.59,8.0,Calm,Calm,-,N/A,,Mostly Cloudy,0,2013-12-24 13:56:00
8:56 AM,-13.0,-18.0,78,30.59,7.0,Calm,Calm,-,N/A,,Overcast,0,2013-12-24 14:56:00
9:34 AM,-11.0,-14.1,86,30.54,6.0,Calm,Calm,-,N/A,,Scattered Clouds,0,2013-12-24 15:34:00
9:56 AM,-11.0,-16.1,78,30.59,5.0,Calm,Calm,-,0.00,,Haze,0,2013-12-24 15:56:00
10:56 AM,-7.1,-11.9,79,30.57,9.0,ENE,3.5,-,0.00,,Mostly Cloudy,70,2013-12-24 16:56:00
11:26 AM,-2.9,-9.9,72,30.50,9.0,Calm,Calm,-,N/A,,Overcast,0,2013-12-24 17:26:00
11:56 AM,-2.0,-7.1,79,30.54,9.0,Calm,Calm,-,N/A,,Scattered Clouds,0,2013-12-24 17:56:00
12:56 PM,1.9,-6.0,69,30.51,10.0,ESE,3.5,-,N/A,,Clear,110,2013-12-24 18:56:00
1:56 PM,6.1,-2.0,69,30.45,10.0,ENE,3.5,-,N/A,,Clear,60,2013-12-24 19:56:00
2:56 PM,8.1,-0.0,70,30.47,10.0,Calm,Calm,-,N/A,,Clear,0,2013-12-24 20:56:00
3:56 PM,8.1,1.0,73,30.47,10.0,South,10.4,-,N/A,,Clear,190,2013-12-24 21:56:00
4:56 PM,8.1,-0.0,70,30.45,10.0,SSW,5.8,-,N/A,,Mostly Cloudy,200,2013-12-24 22:56:00
5:56 PM,8.1,-0.0,70,30.42,10.0,East,3.5,-,N/A,,Overcast,90,2013-12-24 23:56:00
6:56 PM,9.0,1.0,70,30.41,10.0,ESE,8.1,-,N/A,,Overcast,110,2013-12-25 00:56:00
7:56 PM,9.0,1.0,70,30.41,10.0,SSE,9.2,-,N/A,,Overcast,150,2013-12-25 01:56:00
8:18 PM,9.0,1.0,70,30.34,1.8,SE,9.2,-,0.00,Snow,Light Snow,140,2013-12-25 02:18:00
8:53 PM,6.8,3.2,85,30.34,0.8,ESE,6.9,-,0.00,Snow,Light Snow,120,2013-12-25 02:53:00
8:56 PM,7.0,3.0,84,30.39,0.8,SE,5.8,-,0.01,Snow,Light Snow,130,2013-12-25 02:56:00
9:03 PM,7.0,3.0,84,30.33,1.0,ESE,6.9,-,0.00,Snow,Light Snow,110,2013-12-25 03:03:00
9:25 PM,7.0,3.0,84,30.31,0.8,East,8.1,-,0.00,Snow,Light Snow,100,2013-12-25 03:25:00
9:56 PM,7.0,3.0,84,30.35,0.8,East,6.9,-,0.01,Snow,Light Snow,90,2013-12-25 03:56:00
10:07 PM,7.0,3.0,84,30.30,1.0,East,6.9,-,0.01,Snow,Light Snow,100,2013-12-25 04:07:00
10:37 PM,8.1,3.9,83,30.29,2.0,East,6.9,-,0.01,Snow,Light Snow,100,2013-12-25 04:37:00
10:45 PM,8.1,3.9,83,30.29,6.0,East,4.6,-,0.01,,Overcast,90,2013-12-25 04:45:00
10:56 PM,8.1,3.9,83,30.32,8.0,East,8.1,-,0.01,,Overcast,100,2013-12-25 04:56:00
11:23 PM,10.0,5.0,80,30.27,4.0,East,6.9,-,0.00,Snow,Light Snow,90,2013-12-25 05:23:00
11:53 PM,10.4,6.8,85,30.25,2.0,ENE,6.9,-,0.00,Snow,Light Snow,60,2013-12-25 05:53:00
11:56 PM,10.0,6.1,84,30.29,1.5,ENE,6.9,-,0.00,Snow,Light Snow,70,2013-12-25 05:56:00